sat.trackr.live / text

‹ back to catalog

2023-189A

NORAD 58502 · 2023-189A

PAYLOAD ACTIVE UNKNOWN

§ Identity

Operator
Country
PRC
Launch date
2023-12-04
Launch site
JSC
Launch vehicle
Mass (kg)
RCS (m²)

External: N2YO · Heavens-Above · Gunter

§ Orbital elements

Epoch: 2026-05-25T05:00:05.523264Z

Period
93.93 min
Inclination
97.4383°
Eccentricity
0.0010524
Mean motion
15.33096988 rev/d
Perigee alt
459.4 km
Apogee alt
473.8 km
Semi-major
6,844.7 km
B*
1.4047e-4
RAAN
163.3053°
Arg perigee
351.5290°
Mean anomaly
8.5773°
Rev number
13,769

§ Raw data

2023-189A1 58502U 23189A   26145.20839726  .00004417  00000+0  14047-3 0  99922 58502  97.4383 163.3053 0010524 351.5290   8.5773 15.33096988137692

JSON: /api/v1/satellites/58502 · /tle

For live sub-satellite position, see the globe view (requires WebGL).

§ Visibility from observer

Set your observer location to see the next 7 days of passes ≥ 10°. The values pass through the URL so the page stays shareable.

No JS? Fill the form by hand. The geolocation button needs JavaScript.